Location: ??????
(30.5519°N, 47.7720°E)
Time: 17:21:57
(UTC+00:00)

H-2A R/B - Pass Details

Date: 24 January 2021
Orbit: 577 x 655 km, 98.5° (Epoch: 01 March)

Event Time Altitude Azimuth Distance (km) Brightness Sun altitude
Rises 14:46:54 0° 359° (N) 2,932 5.3 -6.6°
Reaches altitude 10° 14:49:21 10° 348° (NNW) 2,007 4.6 -7.1°
Maximum altitude 14:53:05 29° 289° (WNW) 1,150 4.1 -7.9°
Drops below altitude 10° 14:56:44 10° 229° (SW) 1,955 5.8 -8.7°
Sets 14:59:06 0° 218° (SW) 2,841 6.5 -9.1°
